www.pogodaiklimat.ru

Погода и климат >> Архив погоды >> Россия >> Амурская область >> Братолюбовка


ПОГОДА в Братолюбовке

  • Прогноз погоды в Братолюбовке
  • Монитор погоды в Братолюбовке

АРХИВ ПОГОДЫ в Братолюбовке

Время (UTC), дата Ветер
(напр.,м/с)
 
Видим.   Явления Облачность Т
(С)
Тd
(С)
f
(%)
Тe
(С)
Тes
(С)
Комфортность P
(гПа)
Po
(гПа)
Тmin
(С)
Tmax
(С)
R
(мм)
R24
(мм)
S
(см)
09 15.08 В 1 50 км 10/0
[Ac und]
+23.3 +16.0 64 +28 +28 душно 1003.2 977.1
12 15.08 СВ 1 50 км 9/6 600 м
[Cb cap Ac trans]
+18.4 +17.0 92 +20 +20 1003.7 977.2 +23.8
15 15.08 штиль 0 50 км 10/0
[Ac lent Cs]
+16.6 +15.7 94 +16 +16 1003.2 976.5
18 15.08 В 1 1000 м дымка 9/9 600 м
[Sc]
+16.0 +15.2 95 +17 +17 1002.4 975.7
21 15.08 В 1 2200 м в посл. час туман 9/0
[Ac trans]
+16.2 +15.4 95 +17 +17 1002.5 975.7
00 16.08 В 1 8000 м дымка {туман} 10/6 600 м
[Cb cap Ac und]
+17.6 +15.7 89 +19 +20 1002.1 975.5 +15.6
03 16.08 В 2 7000 м слаб. ливневой дождь 10/10 600 м
[Cb cap]
+17.7 +15.7 88 +18 +18 1001.8 975.2
06 16.08 СВ 2 6000 м ливневой дождь 10/10 600 м
[Cb cap]
+17.5 +16.0 91 +18 +18 1000.4 973.8
09 16.08 СВ 2 5000 м ливневой дождь 10/10 600 м
[Cb cap]
+16.0 +14.9 93 +16 +16 999.7 973.0
12 16.08 СВ 2 6000 м слаб. ливневой дождь 10/10 600 м
[Cb cap]
+15.0 +14.0 94 +15 +15 999.2 972.5 +18.5 13
15 16.08 СВ 2 6000 м слаб. ливневой дождь 10/10 600 м
[Cb cap]
+14.2 +13.2 94 +14 +14 998.0 971.2
18 16.08 В 2 7000 м слаб. ливневой дождь 10/10 600 м
[Cb cap]
+13.9 +13.0 94 +13 +13 996.9 970.1
21 16.08 В 2 5000 м слаб. морось 10/10 600 м
[St]
+13.8 +12.9 94 +13 +13 996.6 969.8
00 17.08 В 3 13 км в посл. час дождь {ливн. осадки} 10/10 600 м
[Frnb Ns]
+15.1 +13.9 93 +14 +14 996.5 969.8 +13.8 10
03 17.08 ЮВ 5
{10}
45 км 10/10 600 м
[Frnb Ns]
+17.0 +13.3 79 +16 +16 997.2 970.7
06 17.08 В 5-10
{10}
45 км 10/10 600 м
[Cb cap]
+16.0 +13.8 87 +15 +15 997.5 970.9
09 17.08 В 4
{10}
40 км 10/10 600 м
[Cb cap]
+16.2 +12.8 80 +15 +15 998.0 971.4
12 17.08 В 2
{10}
30 км 10/10 600 м
[Cb cap]
+14.1 +12.6 91 +14 +14 999.5 972.7 +17.1
15 17.08 В 2 25 км {ливн. осадки} 10/10 600 м
[Cb cap]
+13.1 +12.0 93 +12 +12 1000.2 973.2
18 17.08 В 2 5000 м слаб. морось 10/10 600 м
[St]
+12.4 +11.5 94 +11 +11 1000.2 973.2
21 17.08 В 2 4500 м морось 10/10 600 м
[St]
+12.1 +11.2 94 +11 +11 1000.8 973.7
00 18.08 В 2 5000 м слаб. морось 10/10 600 м
[St]
+12.6 +11.4 92 +12 +12 1001.8 974.7 +12.1 2
03 18.08 В 2 5000 м морось 10/10 600 м
[St]
+13.5 +12.3 92 +13 +13 1002.7 975.7
06 18.08 В 3 6000 м слаб. дождь {морось} 10/10 600 м
[Frnb Ns]
+13.9 +12.6 92 +13 +13 1003.0 976.0
09 18.08 СВ 1 16 км в посл. час дождь 10/10 600 м
[Frnb Ns]
+14.3 +13.1 92 +15 +15 1003.9 976.9
12 18.08 СВ 1 20 км {дождь} 10/10 600 м
[Frnb Ns]
+13.6 +12.7 94 +14 +14 1005.3 978.3 +14.4 8
15 18.08 С 1 4800 м морось 10/10 600 м
[St]
+13.5 +12.6 94 +14 +14 1005.9 978.8
18 18.08 СЗ 2 4300 м морось 10/10 600 м
[St]
+13.2 +12.4 95 +12 +12 1006.7 979.6
21 18.08 З 2 600 м слаб. морось {туман} туман 10/10 600 м
[St]
+12.6 +11.8 95 +12 +12 1008.2 981.0
00 19.08 З 2 15 км {морось, туман} 10/10 600 м
[St]
+13.1 +12.1 94 +12 +12 1009.7 982.5 +12.5 3
03 19.08 З 2 30 км 10/10 600 м
[St]
+14.5 +12.6 88 +14 +14 1010.3 983.2
06 19.08 З 3 50 км 10/10 600 м
[Cb cap]
+16.3 +11.9 75 +16 +16 1011.0 984.0
09 19.08 З 2 50 км 10/6 600 м
[Cb cap Ac As]
+16.1 +12.1 77 +16 +16 1011.4 984.4
12 19.08 штиль 0 50 км 9/8 600 м
[Sc Ac trans]
+14.3 +12.9 91 +14 +14 1012.6 985.4 +17.9
15 19.08 штиль 0 50 км 10/10 600 м
[Sc]
+13.7 +12.8 94 +13 +13 1013.0 985.7
18 19.08 штиль 0 50 км 9/9 600 м
[Sc]
+13.5 +12.5 94 +13 +13 1013.0 985.7
21 19.08 штиль 0 50 км 9/9 600 м
[Sc]
+13.3 +12.5 95 +13 +13 1013.0 985.7
00 20.08 С 1 50 км 9/6 600 м
[Cb cap Ac trans]
+16.3 +11.0 71 +17 +19 1012.7 985.7 +13.2
03 20.08 Ю 1 50 км 10/8 600 м
[Cb cap Ci fib]
+18.4 +11.2 63 +20 +22 1012.3 985.4
06 20.08 С 1 50 км 9/8 600 м
[Cb cap Ci fib]
+20.2 +10.7 54 +23 +25 комфорт 1011.1 984.5
09 20.08 штиль 0 50 км 10/3 600 м
[Sc Ac lent Ci fib]
+20.2 +11.3 57 +22 +22 комфорт 1010.7 984.1
12 20.08 В 2 50 км 9/9 600 м
[Sc Ac As]
+13.7 +12.4 92 +13 +13 1011.2 984.0 +21.0
15 20.08 В 2 50 км 10/0
[Ac und]
+13.6 +12.6 94 +13 +13 1010.3 983.1
18 20.08 В 3 50 км 10/0
[Ac As Cs]
+12.6 +11.8 95 +11 +11 1009.4 982.1
21 20.08 В 3 50 км 10/10 600 м
[Sc]
+13.1 +12.1 94 +12 +12 1008.5 981.3
00 21.08 ЮВ 4 50 км 8/3 600 м
[Sc Ac cast Ci fib]
+18.8 +13.7 72 +20 +22 1007.6 981.0 +12.5
03 21.08 ЮВ 5
{11}
50 км 9/6 600 м
[Sc Ac cast]
+21.7 +14.7 64 +25 +26 комфорт 1006.6 980.3
06 21.08 В 6
{10}
50 км 10/6 600 м
[Cu Sc Ac cast Ci fib]
+21.6 +15.3 67 +25 +26 комфорт 1005.1 978.8
09 21.08 В 5
{11}
50 км 10/8 600 м
[Cb cap As op]
+20.2 +14.8 71 +23 +23 комфорт 1005.2 978.8
12 21.08 В 2 22 км {ливн. осадки} 10/10 600 м
[Cb cap]
+16.6 +15.2 91 +17 +17 1006.3 979.5 +22.4 0.7
15 21.08 В 2 25 км 10/10 600 м
[Cb cap]
+16.1 +14.5 90 +16 +16 1005.9 979.1
18 21.08 В 2 28 км 10/8 600 м
[Cb cap As trans]
+16.2 +14.0 87 +16 +16 1005.6 978.8
21 21.08 В 3 8000 м слаб. ливневой дождь 10/10 600 м
[Cb cap]
+15.4 +13.8 90 +15 +15 1006.1 979.2
00 22.08 В 3 50 км в посл. час ливневой дождь 9/9 600 м
[Cb cap]
+16.6 +14.8 89 +16 +17 1006.8 980.0 +15.4 1

 

Местоположение метеостанции Братолюбовка (Амурская область, Россия): широта 50.78 долгота 129.30 высота над уровнем моря 230 м.

В архиве по умолчанию представлена погода в Братолюбовке за последнюю неделю. Архивные данные за месяц целиком и за предыдущие месяцы, начиная с января 2011 года, Вы можете получить, выбрав интересующий диапазон дат из раскрывающегося списка и нажав кнопку "Ввод!".


*Определитесь, кто Вы:
робот инопланетянин человек

Внимание! Время в таблицах - всемирное. Для получения местного времени необходимо прибавить поправку, которая равна 9 ч.

Смотрите также архив погоды в соседних городах и на ближайших метеорологических станциях:

Погода в Екатеринославке (Амурская область, Россия) (50 км)
Погода в Белогорске (Амурская область, Россия) (65 км)
Погода в Завитае (Амурская область, Россия) (74 км)
Погода в Мазаново (Амурская область, Россия) (101 км)
Погода в Свободном (Амурская область, Россия) (112 км)
Погода в Малиновке (Амурская область, Россия) (119 км)
Погода в Сектагли (Хабаровский край, Россия) (126 км)
Погода в Поярково (Амурская область, Россия) (138 км)
Погода в Сергеевке (Амурская область, Россия) (141 км)
Погода в Айгуне (Хэйлунцзян, Китай) (144 км)

Пояснения к столбцам:

Ветер - указаны скорость ветра в м/с - средняя за 10 мин, порывы в срок и между сроками (в фигурных скобках) и направление, откуда дует ветер: С - северный, СВ - северо-восточный, В - восточный, ЮВ - юго-восточный, Ю - южный, ЮЗ - юго-западный, З - западный, СЗ - северо-западный.
Видимость - горизонтальная дальность видимости в метрах или километрах. При видимости от 1 до 10 км при отсутствии осадков обычно наблюдается дымка, при ухудшении видимости до 1 км и менее - туман. В сухую погоду видимость может ухудшаться дымом, пылью или мглою.
Явления - указаны атмосферные явления, наблюдавшиеся в срок или в последний час перед сроком; фигурными скобками обозначены явления, наблюдавшиеся между сроками (за 1-3 часа до срока); квадратными скобками обозначены град или гололедные отложения с указанием их диаметра в мм.
Облачность - указаны через наклонную черту общая и нижняя облачность в баллах и высота нижней границы облаков в метрах; квадратными скобками обозначены формы облаков: Ci - перистые, Cs - перисто-слоистые, Cc - перисто-кучевые, Ac - высококучевые, As - высокослоистые, Sc - слоисто-кучевые, Ns - слоисто-дождевые, Cu - кучевые, Cb - кучево-дождевые. Подробнее классификацию облаков см. в Атласе облаков (PDF).
T - Температура воздуха - температура, измеренная на высоте 2 м над землей.
Td - Температура точки росы - температура, при понижении до которой содержащийся в воздухе водяной пар достигнет насыщения.
f - Относительная влажность воздуха - влажноcть воздуха, измеренная на высоте 2 м над землей.
Te - Эффективная температура - температура, которую ощущает одетый по сезону человек в тени. Характеристика душности погоды. При расчете учитывается влияние влажности воздуха и скорости ветра на теплоощущения человека.
Tes - Эффективная температура на солнце - температура, которую ощущает человек, с поправкой на солнечный нагрев. Характеристика знойности погоды. Зависит от высоты солнца над горизонтом, облачности и скорости ветра. Ночью, в пасмурную погоду, а также при ветре 12 м/с и более поправка равна нулю.
P - Атмосферное давление - приведенное к уровню моря атмосферное давление.
Po - Атмосферное давление - измеренное на уровне метеостанции атмосферное давление.
Tmin - Минимальная температура - минимум температуры воздуха на высоте 2 м над землей.
Tmax - Максимальная температура - максимум температуры воздуха на высоте 2 м над землей.
R - Количество осадков - Количество выпавших осадков за период времени, мм. При наведении курсора мыши на число - период времени, за который выпало указанное количество осадков.
R24 - Количество осадков - Количество выпавших осадков за 24 часа, мм.
S - Снежный покров - Высота снежного покрова, см. При наведении курсора мыши на число - состояние снежного покрова и степень покрытия местности в баллах.